Location: São Paulo
(23.5507°S, 46.6334°W)
Time: 07:32:58
(UTC-03:00)

Vanguard 2 Rocket - Pass Details

Date: 17 February 2026
Orbit: 553 x 3286 km, 32.9° (Epoch: 7 March)

Event Time Altitude Azimuth Distance (km) Brightness Sun altitude
Exits shadow 04:26:58 11° 242° (WSW) 3,176 9.3 -20.1°
Maximum altitude 04:35:06 56° 165° (SSE) 2,119 8.9 -18.4°
Drops below altitude 10° 04:49:55 10° 89° (E) 5,511 12.0 -15.2°
Sets 04:55:11 0° 85° (E) 6,848 12.6 -14.1°
